DW3809 Weather Reports


time (UTC)temp
C
wind
direction
speed
KPH
gust
KPH
rain 1hr
cm
rain 24hr
cm
rain mn
cm
humidity
%
barometer
mb
20260507183005 16 247 3.2 6.4 0.00 0.51 0.03 28 1014.3
20260507181600 16 190 0.0 4.8 0.00 0.51 0.03 28 1014.5
20260507180108 16 282 0.0 4.8 0.00 0.51 0.03 29 1014.6
20260507174630 16 246 1.6 6.4 0.00 0.51 0.03 29 1015.1
20260507173055 16 244 0.0 6.4 0.00 0.51 0.03 33 1015.7
20260507171605 16 288 3.2 11.3 0.00 0.51 0.03 29 1016.2
20260507170048 16 225 0.0 6.4 0.00 0.51 0.03 29 1016.5
20260507164551 15 289 0.0 8.0 0.00 0.51 0.03 27 1016.7
20260507163043 15 240 4.8 11.3 0.00 0.51 0.03 28 1016.8
20260507161542 14 258 3.2 8.0 0.00 0.51 0.03 30 1017.1
20260507160101 13 260 1.6 6.4 0.03 0.51 0.03 29 1017.4
20260507154536 13 262 1.6 8.0 0.03 0.51 0.03 29 1017.6
20260507153031 12 296 3.2 8.0 0.03 0.51 0.03 32 1017.7
20260507151529 12 239 1.6 11.3 0.03 0.51 0.03 38 1017.8
20260507150028 11 254 1.6 6.4 0.00 0.48 0.00 38 1018.2
20260507144521 11 246 1.6 4.8 0.00 0.48 0.00 42 1018.2
20260507143019 10 267 0.0 1.6 0.00 0.48 0.00 41 1018.5
20260507141515 9 259 1.6 6.4 0.00 0.48 0.00 43 1018.5
20260507140026 8 119 0.0 3.2 0.00 0.48 0.00 47 1018.7
20260507134506 6 237 0.0 3.2 0.00 0.48 0.00 49 1018.7
20260507133002 5 244 0.0 3.2 0.00 0.48 0.00 52 1018.7
20260507131621 4 234 0.0 4.8 0.00 0.48 0.00 55 1018.6
20260507130100 3 239 0.0 4.8 0.00 0.48 0.00 57 1018.7
20260507124555 2 254 0.0 4.8 0.00 0.48 0.00 58 1018.5
20260507123047 1 236 0.0 4.8 0.00 0.48 0.00 60 1018.5
20260507121546 1 249 0.0 3.2 0.00 0.48 0.00 60 1018.5
20260507120044 1 211 0.0 4.8 0.00 0.48 0.00 62 1018.3
20260507114542 0 104 0.0 1.6 0.00 0.48 0.00 63 1018.4
20260507113103 0 257 0.0 4.8 0.00 0.48 0.00 61 1018.5
20260507111541 0 257 0.0 3.2 0.00 0.48 0.00 63 1018.5
20260507110041 0 235 0.0 1.6 0.00 0.48 0.00 62 1018.6
20260507104542 0 270 0.0 4.8 0.00 0.48 0.00 62 1018.3
20260507103037 0 257 0.0 4.8 0.00 0.48 0.00 63 1018.3
20260507101535 0 140 0.0 3.2 0.00 0.48 0.00 70 1018.5
20260507100042 -2 111 0.0 1.6 0.00 0.48 0.00 77 1018.7
20260507094531 -1 200 0.0 0.0 0.00 0.48 0.00 76 1018.5
20260507093034 -1 165 0.0 0.0 0.00 0.48 0.00 77 1018.6
20260507091533 -2 165 0.0 0.0 0.00 0.48 0.00 84 1018.8
20260507090026 -3 196 0.0 0.0 0.00 0.48 0.00 86 1019.0
20260507084542 -3 151 0.0 1.6 0.00 0.48 0.00 88 1019.0
20260507083025 -3 171 0.0 0.0 0.00 0.48 0.00 89 1019.1
20260507081521 -3 190 0.0 0.0 0.00 0.48 0.00 91 1019.1
20260507080019 -3 191 0.0 0.0 0.00 0.48 0.00 91 1019.4
20260507074518 -3 204 0.0 0.0 0.00 0.48 0.00 92 1019.5
20260507073022 -3 204 0.0 0.0 0.00 0.48 0.00 92 1019.6
20260507071517 -3 211 0.0 1.6 0.00 0.48 0.00 92 1019.6
20260507070019 -2 136 0.0 0.0 0.00 0.48 0.00 92 1019.7
20260507064512 -2 135 0.0 1.6 0.00 0.48 0.00 92 1019.8
20260507063013 -2 203 0.0 1.6 0.00 0.48 0.00 92 1019.7
20260507061507 -2 198 0.0 0.0 0.00 0.48 0.00 91 1019.8
20260507060006 -2 198 0.0 0.0 0.00 0.48 0.00 91 1019.6
20260507054504 -1 197 0.0 0.0 0.00 0.48 0.48 91 1019.5
20260507053005 -1 198 0.0 0.0 0.00 0.48 0.48 90 1019.6
20260507051503 -1 198 0.0 0.0 0.00 0.48 0.48 90 1019.4
20260507050007 -1 198 0.0 0.0 0.00 0.48 0.48 89 1019.4
20260507044501 -1 198 0.0 0.0 0.00 0.48 0.48 89 1019.3
20260507043001 -1 200 0.0 1.6 0.00 0.48 0.48 88 1019.3
20260507041601 0 199 0.0 0.0 0.00 0.48 0.48 86 1019.3
20260507040111 0 194 0.0 1.6 0.00 0.48 0.48 86 1019.4
20260507034605 0 206 0.0 0.0 0.00 0.48 0.48 85 1019.3
20260507033103 0 149 0.0 0.0 0.00 0.48 0.48 84 1019.3
20260507031558 0 200 0.0 0.0 0.00 0.48 0.48 82 1019.2
20260507030058 0 182 0.0 3.2 0.00 0.48 0.48 81 1018.9
20260507024556 0 199 0.0 1.6 0.00 0.48 0.48 79 1018.8
20260507023055 0 155 0.0 1.6 0.00 0.48 0.48 78 1018.8
20260507021602 1 144 0.0 6.4 0.00 0.48 0.48 76 1018.7
20260507020055 1 218 0.0 6.4 0.00 0.48 0.48 73 1018.6
20260507014557 2 165 0.0 9.7 0.00 0.48 0.48 71 1018.4
20260507013053 3 152 3.2 11.3 0.00 0.48 0.48 68 1018.5
20260507011557 4 153 1.6 9.7 0.00 0.48 0.48 63 1018.4
20260507010052 5 206 1.6 8.0 0.00 0.48 0.48 61 1018.3
20260507004551 5 180 3.2 11.3 0.00 0.53 0.48 60 1018.1
20260507003051 5 144 1.6 6.4 0.03 0.53 0.48 58 1018.1
20260507001551 5 162 0.0 4.8 0.03 0.53 0.48 62 1018.1
20260507000054 6 147 0.0 4.8 0.05 0.53 0.48 58 1018.3
20260506234604 6 238 0.0 4.8 0.05 0.58 0.48 58 1018.4
20260506233048 6 166 0.0 1.6 0.05 0.56 0.46 61 1018.5
20260506231545 5 239 0.0 4.8 0.05 0.56 0.46 64 1018.6
20260506230042 3 163 0.0 3.2 0.05 0.53 0.43 67 1018.7
20260506224546 3 257 1.6 4.8 0.08 0.58 0.43 69 1018.7
20260506223048 3 225 0.0 3.2 0.10 0.56 0.41 69 1018.7
20260506221541 3 261 0.0 8.0 0.18 0.56 0.41 72 1018.8
20260506220041 3 236 1.6 8.0 0.20 0.53 0.38 69 1018.9
20260506214542 3 250 0.0 8.0 0.28 0.53 0.36 67 1018.9
20260506213038 3 221 1.6 8.0 0.25 0.48 0.30 70 1018.9
20260506211534 2 249 3.2 8.0 0.20 0.41 0.23 74 1019.0
20260506210037 2 255 3.2 11.3 0.15 0.36 0.18 76 1019.1
20260506204546 1 240 4.8 8.0 0.08 0.30 0.08 76 1019.1
20260506203032 1 100 1.6 6.4 0.05 0.28 0.05 77 1019.3
20260506201534 1 259 1.6 11.3 0.03 0.25 0.03 77 1019.2
20260506200034 1 243 3.2 8.0 0.03 0.25 0.03 78 1018.9
20260506194530 1 101 1.6 8.0 0.00 0.30 0.00 79 1018.9
20260506193029 1 236 6.4 12.9 0.00 0.30 0.00 80 1019.0
20260506191529 1 259 3.2 8.0 0.00 0.30 0.00 79 1018.9
20260506190029 2 215 3.2 11.3 0.00 0.30 0.00 79 1018.9
20260506184526 1 284 3.2 6.4 0.00 0.38 0.00 78 1018.9
20260506183023 1 258 1.6 4.8 0.00 0.38 0.00 79 1019.2